Location: Chiroubles
(46.1812°N, 4.6660°E)
Time: 03:10:22
(UTC+00:00)

SL-27 R/B - Pass Details

Date: 15 August 2020
Orbit: 419 x 471 km, 74.7° (Epoch: 27 September)

Event Time Altitude Azimuth Distance (km) Brightness Sun altitude
Exits shadow 20:03:50 21° 124° (SE) 1,004 3.5 -12.1°
Maximum altitude 20:04:37 23° 102° (ESE) 942 3.5 -12.3°
Drops below altitude 10° 20:07:18 10° 47° (NE) 1,509 4.9 -12.6°
Sets 20:09:37 0° 33° (NNE) 2,379 6.1 -13.0°
